Location: Newark
(49.8969°N, 3.3422°E)
Time: 16:21:27
(UTC+00:00)

deb Explorer IX - Pass Details

Date: 20 January 2020
Orbit: 549 x 1099 km, 38.8° (Epoch: 17 February)

Event Time Altitude Azimuth Distance (km) Brightness Sun altitude
Rises 04:44:00 0° 264° (W) 3,741 - -27.1°
Reaches altitude 10° 04:48:04 10° 243° (WSW) 2,682 - -26.4°
Maximum altitude 04:51:23 15° 212° (SSW) 2,262 - -25.9°
Exits shadow 04:52:55 13° 195° (SSW) 2,292 ? -25.6°
Drops below altitude 10° 04:54:30 10° 180° (S) 2,476 ? -25.4°
Sets 04:58:01 0° 157° (SSE) 3,280 ? -24.8°
